Precipitable_Water
0.50 0.55 0.55 0.57 0.59 0.59 0.57 0.57 0.55 0.58 0.61 0.59 0.55 0.54 0.51 0.50 0.49 0.48 0.48 0.48 0.48 0.47 0.46 0.45 0.45 0.45 0.43 0.42 0.43 0.42 0.41 0.41 0.45 0.47 0.51 0.56 0.59 0.60 0.61 0.65 0.70 0.78 0.85
0.50 0.54 0.55 0.58 0.59 0.59 0.59 0.58 0.56 0.58 0.61 0.62 0.61 0.60 0.56 0.53 0.50 0.48 0.48 0.49 0.49 0.50 0.49 0.49 0.48 0.48 0.45 0.44 0.43 0.42 0.40 0.41 0.45 0.39 0.42 0.37 0.46 0.54 0.60 0.64 0.62 0.62 0.69
0.48 0.52 0.55 0.57 0.60 0.60 0.61 0.60 0.58 0.57 0.60 0.64 0.64 0.62 0.58 0.55 0.51 0.48 0.47 0.49 0.50 0.52 0.52 0.52 0.51 0.51 0.51 0.48 0.47 0.47 0.46 0.42 0.44 0.46 0.40 0.33 0.32 0.41 0.53 0.53 0.59 0.61 0.60
0.51 0.56 0.57 0.58 0.61 0.64 0.66 0.65 0.61 0.58 0.59 0.63 0.61 0.58 0.55 0.52 0.54 0.51 0.50 0.50 0.51 0.52 0.53 0.53 0.53 0.53 0.52 0.51 0.51 0.51 0.49 0.49 0.43 0.44 0.45 0.45 0.42 0.33 0.32 0.46 0.48 0.52 0.55
0.52 0.55 0.58 0.62 0.66 0.70 0.70 0.68 0.64 0.59 0.58 0.58 0.62 0.60 0.58 0.59 0.58 0.55 0.51 0.50 0.51 0.52 0.52 0.52 0.53 0.52 0.51 0.51 0.52 0.53 0.52 0.51 0.47 0.43 0.40 0.37 0.41 0.41 0.35 0.30 0.36 0.42 0.44
0.54 0.60 0.64 0.67 0.68 0.73 0.73 0.71 0.66 0.60 0.58 0.55 0.57 0.59 0.58 0.57 0.55 0.53 0.50 0.50 0.51 0.51 0.52 0.52 0.52 0.51 0.50 0.49 0.50 0.51 0.51 0.51 0.49 0.46 0.42 0.38 0.34 0.32 0.31 0.30 0.31 0.30 0.37
0.57 0.62 0.64 0.66 0.70 0.72 0.73 0.72 0.68 0.62 0.60 0.56 0.55 0.55 0.55 0.54 0.53 0.51 0.51 0.50 0.50 0.50 0.51 0.52 0.51 0.50 0.49 0.50 0.50 0.49 0.48 0.48 0.47 0.45 0.42 0.40 0.38 0.39 0.37 0.34 0.31 0.30 0.34
0.60 0.62 0.66 0.69 0.72 0.75 0.75 0.72 0.68 0.63 0.61 0.59 0.57 0.56 0.55 0.54 0.52 0.50 0.49 0.48 0.48 0.47 0.49 0.50 0.51 0.51 0.50 0.51 0.50 0.49 0.47 0.46 0.45 0.44 0.42 0.39 0.38 0.38 0.37 0.34 0.32 0.27 0.28
0.58 0.61 0.66 0.70 0.74 0.76 0.76 0.73 0.69 0.65 0.63 0.61 0.59 0.57 0.55 0.52 0.50 0.49 0.48 0.48 0.47 0.47 0.47 0.49 0.49 0.48 0.48 0.47 0.47 0.46 0.46 0.46 0.45 0.43 0.41 0.40 0.40 0.39 0.38 0.37 0.36 0.30 0.23
0.58 0.62 0.67 0.70 0.77 0.79 0.77 0.73 0.71 0.67 0.65 0.63 0.60 0.57 0.54 0.53 0.51 0.49 0.48 0.48 0.46 0.45 0.49 0.49 0.47 0.46 0.47 0.47 0.46 0.45 0.45 0.42 0.42 0.41 0.39 0.38 0.39 0.39 0.38 0.38 0.36 0.34 0.30
0.57 0.60 0.66 0.72 0.74 0.74 0.72 0.70 0.67 0.64 0.61 0.60 0.59 0.57 0.55 0.54 0.53 0.50 0.49 0.48 0.52 0.53 0.50 0.48 0.47 0.46 0.45 0.45 0.44 0.42 0.42 0.42 0.42 0.41 0.39 0.38 0.37 0.36 0.36 0.36 0.35 0.33 0.32
0.60 0.65 0.66 0.67 0.68 0.68 0.67 0.64 0.64 0.62 0.61 0.59 0.57 0.55 0.55 0.53 0.52 0.54 0.56 0.57 0.54 0.52 0.50 0.49 0.49 0.48 0.46 0.45 0.44 0.42 0.41 0.40 0.40 0.40 0.39 0.37 0.37 0.35 0.35 0.35 0.33 0.31 0.32
0.63 0.65 0.65 0.64 0.65 0.65 0.64 0.63 0.62 0.60 0.59 0.58 0.56 0.55 0.54 0.53 0.53 0.53 0.54 0.53 0.54 0.54 0.51 0.50 0.47 0.44 0.43 0.42 0.41 0.40 0.39 0.39 0.38 0.38 0.38 0.38 0.37 0.36 0.35 0.34 0.34 0.34 0.34
0.59 0.60 0.58 0.58 0.58 0.58 0.58 0.58 0.58 0.58 0.58 0.57 0.56 0.54 0.53 0.53 0.51 0.51 0.51 0.49 0.48 0.48 0.45 0.44 0.43 0.42 0.41 0.40 0.39 0.38 0.37 0.36 0.35 0.35 0.36 0.36 0.34 0.33 0.32 0.32 0.32 0.34 0.34
0.52 0.52 0.51 0.51 0.52 0.53 0.53 0.53 0.53 0.52 0.51 0.50 0.50 0.50 0.50 0.50 0.49 0.48 0.49 0.48 0.46 0.45 0.44 0.43 0.41 0.40 0.39 0.38 0.37 0.36 0.35 0.35 0.34 0.35 0.35 0.35 0.35 0.35 0.34 0.32 0.30 0.30 0.30
0.46 0.46 0.47 0.48 0.49 0.50 0.49 0.49 0.49 0.48 0.48 0.47 0.46 0.46 0.46 0.46 0.46 0.45 0.44 0.43 0.42 0.42 0.41 0.39 0.38 0.38 0.38 0.38 0.39 0.39 0.38 0.37 0.35 0.34 0.34 0.34 0.34 0.35 0.36 0.37 0.36 0.33 0.30
0.44 0.44 0.45 0.46 0.47 0.47 0.46 0.44 0.43 0.43 0.41 0.40 0.39 0.39 0.38 0.37 0.37 0.37 0.37 0.36 0.36 0.36 0.36 0.36 0.36 0.35 0.36 0.36 0.37 0.37 0.37 0.35 0.34 0.34 0.34 0.33 0.33 0.33 0.34 0.34 0.34 0.34 0.35
0.43 0.43 0.43 0.43 0.43 0.42 0.39 0.38 0.37 0.36 0.34 0.32 0.31 0.31 0.30 0.29 0.28 0.28 0.27 0.27 0.28 0.28 0.28 0.28 0.28 0.28 0.29 0.30 0.31 0.33 0.33 0.33 0.33 0.33 0.32 0.31 0.30 0.29 0.29 0.29 0.30 0.28 0.28
0.42 0.42 0.41 0.39 0.37 0.35 0.33 0.31 0.29 0.28 0.27 0.25 0.24 0.24 0.22 0.21 0.20 0.20 0.20 0.20 0.20 0.20 0.21 0.22 0.22 0.22 0.23 0.25 0.26 0.27 0.27 0.27 0.27 0.28 0.28 0.28 0.28 0.27 0.27 0.26 0.27 0.26 0.26
0.38 0.36 0.34 0.33 0.31 0.29 0.27 0.24 0.22 0.21 0.19 0.19 0.17 0.16 0.15 0.14 0.13 0.13 0.13 0.13 0.14 0.14 0.15 0.16 0.17 0.17 0.17 0.19 0.20 0.22 0.22 0.22 0.24 0.24 0.25 0.26 0.27 0.27 0.27 0.25 0.24 0.25 0.25
0.33 0.32 0.29 0.26 0.25 0.23 0.21 0.18 0.16 0.14 0.14 0.13 0.12 0.12 0.12 0.11 0.11 0.11 0.11 0.11 0.11 0.12 0.12 0.12 0.13 0.13 0.14 0.15 0.16 0.18 0.19 0.19 0.20 0.19 0.20 0.22 0.23 0.24 0.25 0.26 0.25 0.24 0.25
0.27 0.25 0.23 0.21 0.20 0.17 0.15 0.12 0.11 0.10 0.10 0.10 0.09 0.09 0.09 0.09 0.09 0.09 0.09 0.09 0.10 0.10 0.10 0.11 0.12 0.13 0.13 0.15 0.16 0.17 0.18 0.19 0.19 0.19 0.20 0.21 0.22 0.23 0.23 0.24 0.24 0.30 0.29
0.21 0.20 0.18 0.16 0.13 0.10 0.10 0.09 0.08 0.08 0.08 0.08 0.08 0.08 0.08 0.09 0.09 0.08 0.09 0.09 0.09 0.09 0.09 0.10 0.10 0.11 0.12 0.13 0.15 0.16 0.18 0.19 0.20 0.22 0.23 0.23 0.23 0.23 0.24 0.24 0.24 0.26 0.26
0.15 0.13 0.12 0.10 0.08 0.09 0.08 0.08 0.08 0.09 0.09 0.08 0.08 0.09 0.09 0.08 0.09 0.09 0.09 0.09 0.08 0.08 0.09 0.09 0.09 0.10 0.11 0.13 0.14 0.15 0.16 0.17 0.18 0.19 0.20 0.21 0.23 0.26 0.25 0.24 0.23 0.27 0.28
0.10 0.11 0.09 0.08 0.08 0.08 0.08 0.09 0.09 0.09 0.08 0.08 0.09 0.09 0.08 0.08 0.09 0.09 0.09 0.09 0.10 0.10 0.10 0.11 0.11 0.11 0.11 0.13 0.15 0.16 0.16 0.16 0.17 0.18 0.18 0.16 0.16 0.17 0.21 0.24 0.23 0.23 0.25
0.10 0.08 0.08 0.08 0.08 0.09 0.09 0.09 0.09 0.09 0.09 0.09 0.08 0.08 0.09 0.09 0.09 0.09 0.08 0.10 0.10 0.11 0.12 0.13 0.13 0.14 0.15 0.15 0.17 0.18 0.19 0.21 0.23 0.21 0.18 0.17 0.16 0.16 0.16 0.20 0.22 0.23 0.24
Wind_Speed
16 16 16 16 16 17 17 17 17 17 16 16 15 16 15 15 16 16 16 17 16 15 15 15 15 15 14 14 14 15 15 16 17 18 18 17 16 15 16 17 19 22 24
16 17 16 17 17 18 18 18 18 18 18 18 17 17 17 17 17 17 17 17 16 16 16 17 17 16 16 16 16 16 17 17 18 19 20 20 21 20 19 19 19 19 22
17 17 17 18 18 18 19 20 20 20 20 19 19 18 18 18 18 19 19 18 18 18 17 18 18 18 18 18 18 18 18 19 19 19 20 21 21 22 21 21 21 21 22
16 17 18 19 19 19 20 20 21 21 21 20 20 20 20 20 20 20 20 19 19 19 19 19 20 20 20 20 20 20 20 21 21 21 21 21 22 22 23 23 23 23 23
16 17 19 20 20 20 21 21 21 22 22 22 22 22 22 22 22 22 22 21 21 21 21 22 22 22 22 23 23 23 23 23 23 22 23 23 23 23 24 24 24 25 25
16 16 17 18 20 20 21 22 22 23 24 24 24 24 24 24 23 24 24 24 24 24 24 25 25 25 25 25 26 26 26 26 25 25 24 24 24 24 24 25 25 26 26
15 15 16 17 19 21 22 23 24 24 25 25 25 25 25 26 26 26 26 26 27 27 28 28 28 28 28 28 28 28 28 28 27 27 27 27 27 27 27 27 28 28 28
15 16 17 18 19 22 24 24 24 25 25 26 26 26 27 27 27 28 28 29 29 29 30 30 31 31 31 32 32 32 32 31 31 31 31 31 30 31 31 31 31 31 30
17 18 18 20 22 24 25 25 25 25 25 26 27 28 28 29 29 30 30 29 30 31 32 33 33 34 34 35 35 35 35 35 35 35 35 35 35 34 34 34 34 33 33
18 19 20 22 23 24 24 24 25 25 26 27 27 29 29 30 30 31 31 32 32 33 35 36 36 37 38 38 38 38 38 38 38 38 38 38 38 38 37 37 36 36 36
21 21 22 23 23 23 23 24 25 25 26 27 28 29 30 30 31 32 32 33 35 37 38 38 39 39 40 40 40 40 40 40 40 40 40 40 40 40 39 39 39 39 38
22 24 25 25 25 25 25 26 26 27 27 28 29 30 30 31 32 34 36 38 38 39 40 41 41 42 42 43 43 42 42 42 42 42 42 41 41 41 41 41 40 40 40
25 26 28 28 28 28 27 27 27 29 30 31 31 32 33 34 36 37 38 38 39 42 42 43 43 44 44 43 43 43 43 43 43 43 43 42 42 41 41 41 41 41 41
28 29 29 29 28 26 26 28 29 30 32 33 33 34 35 36 37 38 39 40 42 43 43 44 45 45 45 45 45 45 44 44 43 43 42 42 42 42 41 41 41 42 42
28 29 28 28 27 27 27 29 30 30 31 32 34 35 37 38 39 40 42 43 44 44 45 46 46 46 46 46 45 45 44 44 43 43 42 42 42 42 42 41 41 41 41
27 28 27 26 27 28 29 30 31 32 33 35 36 38 39 40 41 43 44 45 46 47 47 47 47 47 47 47 47 46 45 45 44 44 43 43 43 43 43 43 43 42 41
27 26 26 27 28 29 30 31 34 35 36 37 38 39 40 42 43 44 45 46 48 48 48 49 48 48 47 47 46 46 45 45 44 43 43 42 42 42 42 43 43 43 43
26 26 27 28 29 30 33 35 37 38 38 39 40 42 43 44 45 46 48 49 49 49 49 49 49 48 47 46 46 46 45 45 44 43 43 43 42 42 42 42 43 43 42
25 26 28 30 33 34 36 38 38 39 41 42 43 44 46 46 48 49 50 50 49 49 48 47 46 46 46 46 46 46 46 46 46 45 45 44 44 43 43 42 42 41 41
27 29 32 33 34 36 38 40 41 42 43 44 45 46 47 47 48 48 47 45 44 44 43 42 42 43 43 43 43 44 44 45 45 46 46 46 45 44 43 43 42 41 39
31 33 35 37 38 40 41 42 42 43 44 45 45 45 46 46 46 46 43 42 42 41 41 41 41 41 41 42 42 42 42 42 42 42 42 42 43 44 44 43 42 41 39
34 35 37 38 40 41 42 42 42 43 44 44 44 45 45 44 43 42 42 42 41 41 41 41 41 41 41 41 40 40 40 40 39 39 39 38 39 40 39 40 40 39 38
36 37 38 39 40 41 41 42 43 43 43 43 44 43 42 41 41 42 42 42 42 42 42 42 41 41 40 39 39 38 38 37 37 36 36 36 37 37 37 37 37 36 35
37 38 38 39 40 40 41 42 43 43 43 42 41 40 40 41 41 42 43 43 43 43 43 42 42 41 40 39 37 37 35 35 34 35 35 34 33 31 33 33 34 33 33
37 37 38 39 39 41 41 42 42 41 40 40 41 41 43 43 44 44 44 44 44 44 44 44 43 42 41 39 38 36 35 34 33 32 31 32 32 33 32 30 31 32 31
36 38 38 38 39 40 40 40 40 40 41 42 43 44 45 45 45 45 46 46 47 47 47 47 45 43 43 41 39 38 37 35 34 34 32 30 29 30 31 31 30 31 32
Wind_Direction
276 267 259 253 254 257 259 262 265 267 269 270 274 279 285 292 297 303 307 308 306 305 303 303 303 301 296 291 291 286 287 289 284 277 278 279 278 276 273 270 266 262 259
273 265 258 255 255 258 260 262 265 266 267 269 272 278 280 286 291 297 302 303 301 301 300 299 299 299 294 291 291 290 286 286 288 280 277 275 273 274 272 271 269 269 265
269 262 257 255 257 260 261 263 264 266 267 268 271 275 279 283 287 292 295 296 297 298 298 298 296 295 293 290 289 289 289 286 285 285 278 275 272 272 271 271 269 269 267
268 264 258 258 258 262 263 265 265 265 266 267 269 272 276 280 283 287 289 290 293 293 294 296 295 293 291 289 288 288 287 286 285 281 280 276 273 272 271 269 269 269 269
266 264 260 260 260 263 265 267 266 265 266 267 269 271 275 279 281 283 284 286 288 289 291 292 292 291 289 288 286 286 286 285 283 281 279 277 273 272 270 270 269 269 269
270 269 267 264 262 263 266 268 268 267 267 268 269 270 273 276 279 280 280 283 284 285 287 289 289 289 288 287 286 284 283 282 280 279 277 275 272 271 271 270 270 270 268
274 272 272 268 265 265 269 270 268 268 269 269 269 271 273 276 277 278 279 281 282 283 284 285 287 287 287 286 285 283 282 280 278 276 275 274 272 270 270 269 269 269 269
279 281 280 277 274 272 272 273 270 270 270 270 270 272 274 276 277 278 280 281 281 282 283 284 285 285 285 285 284 282 281 279 278 276 274 273 272 270 269 269 268 269 268
280 282 282 283 280 279 274 274 273 273 272 272 273 273 275 276 276 278 279 279 281 282 283 285 285 285 285 284 283 281 279 278 276 275 274 272 271 271 270 268 267 266 267
281 282 283 286 286 285 276 274 275 274 275 275 275 276 277 277 278 278 279 280 281 283 285 285 285 285 285 284 283 281 279 277 275 274 273 272 271 270 270 268 267 265 264
279 280 285 288 287 285 280 277 277 277 277 277 277 277 278 278 279 279 279 280 283 284 285 285 285 285 285 284 283 281 279 277 275 274 273 272 271 270 269 267 266 265 264
278 281 285 284 286 282 281 277 277 278 280 279 278 279 279 280 280 281 282 282 283 284 285 285 284 285 284 283 282 281 279 277 275 273 272 271 270 269 268 267 266 265 264
278 281 286 283 284 280 277 276 277 279 280 280 280 280 280 281 283 283 284 283 284 286 285 285 284 284 284 283 282 280 279 277 275 273 271 270 269 268 267 266 265 265 264
277 280 283 281 281 277 277 278 281 282 283 282 281 282 282 283 285 285 285 285 285 287 285 285 285 285 284 282 281 280 279 277 275 273 271 270 269 267 267 266 265 264 264
277 281 280 279 277 276 279 281 282 284 285 285 285 285 285 286 286 285 285 286 287 286 286 286 285 284 283 282 280 279 277 276 274 272 270 269 268 267 266 266 265 264 264
277 279 278 277 277 279 280 283 285 285 285 286 287 286 286 286 286 286 288 287 287 287 286 285 285 284 282 281 280 278 276 274 272 271 270 269 268 267 266 265 264 263 263
277 276 278 278 279 280 282 283 287 287 286 287 287 287 288 288 289 289 290 290 289 288 287 286 285 283 282 280 279 277 276 274 271 270 269 268 268 267 266 264 263 263 263
276 277 279 281 281 283 285 286 288 288 289 288 288 288 289 290 290 290 291 291 290 288 287 286 284 283 281 280 278 277 275 273 271 269 268 268 267 267 266 265 264 263 262
276 279 281 283 285 285 287 289 291 290 290 290 289 289 290 290 291 292 292 291 290 289 287 286 284 282 281 280 278 276 274 272 270 269 268 267 266 266 266 264 262 262 262
279 281 284 285 285 288 289 290 290 291 292 292 292 291 291 292 293 293 293 292 291 290 289 287 286 284 283 282 280 277 275 273 271 269 267 266 265 264 264 262 261 260 261
283 285 287 287 287 290 291 292 292 293 293 293 294 293 293 294 294 294 293 292 291 290 289 288 287 286 285 283 281 278 276 273 272 270 268 266 264 263 261 260 258 257 258
285 287 288 289 290 293 293 292 293 295 296 295 294 294 294 295 294 293 293 292 291 290 290 289 288 287 285 284 282 279 276 273 272 270 268 266 264 262 260 258 255 253 253
289 290 291 290 292 294 293 294 295 296 296 296 295 295 295 295 295 294 293 292 292 291 290 289 288 287 285 284 281 279 276 273 271 270 268 266 264 261 258 256 252 249 249
291 292 292 293 293 293 294 294 296 297 297 296 296 296 295 296 295 294 294 293 292 291 289 288 287 286 284 282 280 278 275 273 271 270 267 265 263 261 257 253 249 247 246
294 293 294 294 294 295 296 297 297 297 296 296 296 296 296 296 295 294 294 293 292 290 289 287 285 283 281 279 277 275 272 270 269 269 268 264 260 256 254 251 246 243 240
294 295 295 295 296 297 297 297 297 297 296 296 296 296 296 296 295 295 294 293 292 290 288 286 284 281 279 277 275 272 270 269 267 265 264 263 259 255 249 246 246 240 235